星链-35355(STARLINK-35355)

导读

STARLINK-35355是美国SpaceX星链星座的卫星,于2025年11月11日发射入轨,星链是全球最大的低轨卫星互联网星座,该卫星延续星链设计,依托一箭多星发射技术部署,旨在为全球用户提供高速低延迟的互联网接入服务,覆盖偏远地区、海洋、空中等传统网络难以触达的场景。

基本信息
目录编号:
66448
目录名称:
STARLINK-35355
国际标识:
2025-259AC
轨道中心:
EARTH
卫星名称:
星链-35355
卫星全名:
星链-35355(STARLINK-35355)
卫星状态:
在轨 (已飞行297 天)
发射日期:
2025-11-11 UTC
国别 :
美国 (US)
星等 :
--
轨道信息
数据来源 国际轨道数据
星历时间: 2026-09-03T23:33:39+0800
14小时前
查看轨道信息
半长轴: 6861.162km
偏心率: 0.0001715
轨道倾角: 43.002°
近地点辐角 277.067°
升交点赤经 349.680°
平近点角 82.998°
近地点: 481.848km
远地点: 484.202km
周期: 94.266分钟
每日圈数: 15.275883
详细信息
固有亮度:
5
最大亮度:
2.5
卫星平台:
Starlink V1.0
覆盖范围:
全球
运营商:
太空探索技术公司
运营商所在国:
美国
制造商(研发单位):
太空探索技术公司
制造商所在国:
美国
使用方式:
暂无
卫星简介
Starlink 计划是 SpaceX 推出的全球卫星互联网项目,通过发射低轨道卫星,为全球尤其是偏远地区提供高速、低延迟的互联网服务。自 2019 年起,Starlink 已部署数千颗卫星,旨在缩小全球数字鸿沟,推动互联网普及。该项目还为军事、航空等行业提供通信支持,带来广泛经济效益。
2D轨道图
3D轨道图
轨道高度分析图
轨道倾角分析图
轨道综合分析图
查看轨道综合分析图
交会数据列表
事件ID 空间交会对象 最接近时刻(TCA) 交会距离 交会风险概率(CRP) 交会风险指数(CRI) 操作
CDM_260831-142705-841406-644822
2026-08-31T
14:27:56+0000
0.572 km
远距离
1.14065E-4 高风险 0.76
CDM_260831-065706-396806-644821
2026-08-31T
06:57:23+0000
1.369 km
极远距离
5.9091E-6 低风险 0.5
CDM_260831-114205-638506-644821
2026-08-31T
11:42:33+0000
1.376 km
极远距离
5.07215E-6 低风险 0.49
CDM_260831-172706-644806-658522
2026-08-31T
17:27:20+0000
1.474 km
极远距离
3.942958E-6 低风险 0.47
CDM_260831-052306-396806-644821
2026-08-31T
05:23:14+0000
1.798 km
极远距离
2.548148E-6 低风险 0.43
CDM_260904-220300-635006-644821
2026-09-04T
22:03:17+0000
2.486 km
极远距离
1.462845E-6 低风险 0.38
CDM_260831-100805-638506-644821
2026-08-31T
10:08:24+0000
2.981 km
极远距离
8.466673E-7 极低风险 0.34